Location: Kielce
(50.8833°N, 20.6167°E)
Time: 04:42:40
(UTC+02:00)

Tiros 1 - All Passes

Search period start: 21 April 2021 00:00
Search period end: 01 May 2021 00:00
Orbit: 630 x 663 km, 48.4° (Epoch: 20 April)

Date Brightness Start Highest point End Pass type
(mag) Time Alt. Az. Time Alt. Az. Time Alt. Az.
21 Apr - 08:54:28 10° S 08:57:29 17° SE 09:00:29 10° E daylight
21 Apr - 10:34:28 10° SW 10:38:54 45° SSE 10:43:20 10° E daylight
21 Apr - 12:16:13 10° W 12:20:49 65° S 12:25:24 10° E daylight
21 Apr - 13:58:20 10° W 14:02:44 44° SSW 14:07:06 10° SE daylight
21 Apr - 15:41:17 10° WSW 15:44:08 16° SW 15:46:59 10° S daylight
22 Apr - 09:19:01 10° SSW 09:23:02 29° SSE 09:27:01 10° E daylight
22 Apr - 11:00:10 10° WSW 11:04:44 59° S 11:09:17 10° E daylight
22 Apr - 12:42:08 10° W 12:46:43 60° S 12:51:16 10° ESE daylight
22 Apr - 14:24:26 10° W 14:28:25 29° SSW 14:32:24 10° SSE daylight
23 Apr - 08:04:28 10° S 08:07:19 16° SE 08:10:10 10° ESE daylight
23 Apr - 09:44:18 10° SW 09:48:43 43° SSE 09:53:07 10° E daylight
23 Apr - 11:26:00 10° W 11:30:37 65° S 11:35:13 10° E daylight
23 Apr - 13:08:07 10° W 13:12:32 46° SSW 13:16:57 10° SE daylight
23 Apr - 14:50:57 10° W 14:53:58 17° SW 14:57:00 10° S daylight
24 Apr - 08:28:54 10° SSW 08:32:51 27° SSE 08:36:47 10° E daylight
24 Apr - 10:09:58 10° WSW 10:14:32 58° S 10:19:05 10° E daylight
24 Apr - 11:51:55 10° W 11:56:31 61° S 12:01:04 10° ESE daylight
24 Apr - 13:34:12 10° W 13:38:15 31° SSW 13:42:18 10° SSE daylight
25 Apr - 07:14:29 10° S 07:17:10 15° SE 07:19:50 10° ESE daylight
25 Apr - 08:54:07 10° SW 08:58:32 42° SSE 09:02:55 10° E daylight
25 Apr - 10:35:48 10° W 10:40:25 65° S 10:45:01 10° E daylight
25 Apr - 12:17:53 10° W 12:22:21 47° SSW 12:26:47 10° SE daylight
25 Apr - 14:00:38 10° W 14:03:49 18° SW 14:06:59 10° S daylight
26 Apr - 07:38:47 10° SSW 07:42:40 26° SSE 07:46:32 10° E daylight
26 Apr - 09:19:45 10° WSW 09:24:20 57° SSE 09:28:53 10° E daylight
26 Apr - 11:01:43 10° W 11:06:18 62° S 11:10:53 10° ESE daylight
26 Apr - 12:43:57 10° W 12:48:05 32° SSW 12:52:10 10° SE daylight
27 Apr - 06:24:31 10° S 06:27:00 14° SE 06:29:28 10° ESE daylight
27 Apr - 08:03:57 10° SW 08:08:20 40° SSE 08:12:41 10° E daylight
27 Apr - 09:45:35 10° WSW 09:50:13 65° S 09:54:49 10° E daylight
27 Apr - 11:27:40 10° W 11:32:09 49° SSW 11:36:36 10° ESE daylight
27 Apr - 13:10:19 10° W 13:13:39 20° SW 13:16:58 10° S daylight
28 Apr - 06:48:40 10° SSW 06:52:29 25° SSE 06:56:17 10° E daylight
28 Apr - 08:29:32 10° WSW 08:34:08 55° SSE 08:38:41 10° E daylight
28 Apr - 10:11:29 10° W 10:16:06 63° S 10:20:41 10° ESE daylight
28 Apr - 11:53:42 10° W 11:57:54 34° SSW 12:02:03 10° SE daylight
28 Apr - 13:38:23 10° SW 13:39:03 10° SW 13:39:43 10° SW daylight
29 Apr - 05:34:36 10° SSE 05:36:50 13° SE 05:39:03 10° ESE daylight
29 Apr - 07:13:46 10° SW 07:18:08 39° SSE 07:22:29 10° E daylight
29 Apr - 08:55:21 10° WSW 09:00:00 65° S 09:04:36 10° E daylight
29 Apr - 10:37:26 10° W 10:41:57 51° SSW 10:46:26 10° ESE daylight
29 Apr - 12:20:01 10° W 12:23:29 21° SW 12:26:55 10° SSE daylight
30 Apr - 05:58:33 10° SSW 06:02:18 24° SSE 06:06:02 10° E daylight
30 Apr - 07:39:20 10° WSW 07:43:55 54° SSE 07:48:28 10° E daylight
30 Apr - 09:21:15 10° W 09:25:53 64° S 09:30:29 10° ESE daylight
30 Apr - 11:03:28 10° W 11:07:43 35° SSW 11:11:54 10° SE daylight
30 Apr - 12:47:31 10° WSW 12:48:54 11° SW 12:50:17 10° SSW daylight
